When you browse on this site, cookies collect data to enhance your experience and personalize the content and advertising you see.
Visit our Privacy Policy to learn more. By continuing to use the site, you agree to this use of cookies and data.
  • In Portugal
  • List of Countries
  • For 7 days
  • Water Temperature
  • Weather Map
  • Weather Widgets
  • user-avatar
    Login

    Hourly Weather Kobylczyna

    Today, 19 September, Thursday

    Time Temperature Precipitation Wind Pressure Humidity
    00:00 +6°C° 0 mm 2 mps 727 mmHg 82%
    01:00 +5°C° 0 mm 2 mps 727 mmHg 86%
    02:00 +5°C° 0 mm 2 mps 727 mmHg 87%
    03:00 +5°C° 0 mm 2 mps 727 mmHg 89%
    04:00 +5°C° 0 mm 2 mps 727 mmHg 91%
    05:00 +6°C° 0 mm 2 mps 728 mmHg 88%
    06:00 +6°C° 0 mm 2 mps 728 mmHg 85%
    07:00 +7°C° 0 mm 2 mps 728 mmHg 82%
    08:00 +8°C° 0.1 mm 3 mps 728 mmHg 75%
    09:00 +9°C° 0.1 mm 3 mps 729 mmHg 68%
    10:00 +11°C° 0.1 mm 4 mps 729 mmHg 61%
    11:00 +11°C° 0.2 mm 4 mps 729 mmHg 60%
    12:00 +11°C° 0.2 mm 4 mps 728 mmHg 59%
    13:00 +12°C° 0.2 mm 5 mps 728 mmHg 58%
    14:00 +12°C° 0.1 mm 4 mps 728 mmHg 59%
    15:00 +11°C° 0.1 mm 4 mps 728 mmHg 61%
    16:00 +11°C° 0.1 mm 4 mps 728 mmHg 63%
    17:00 +10°C° 0.3 mm 3 mps 728 mmHg 72%
    18:00 +8°C° 0.3 mm 3 mps 728 mmHg 81%
    19:00 +6°C° 0.3 mm 2 mps 728 mmHg 89%
    20:00 +6°C° 0.3 mm 2 mps 729 mmHg 91%
    21:00 +6°C° 0.3 mm 2 mps 729 mmHg 92%
    22:00 +5°C° 0.3 mm 2 mps 729 mmHg 93%
    23:00 +5°C° 0 mm 2 mps 729 mmHg 93%

    Tomorrow, 20 September, Friday

    Time Temperature Precipitation Wind Pressure Humidity
    00:00 +5°C° 0 mm 2 mps 729 mmHg 93%
    01:00 +4°C° 0 mm 2 mps 729 mmHg 93%
    02:00 +4°C° 0 mm 2 mps 729 mmHg 93%
    03:00 +4°C° 0 mm 2 mps 729 mmHg 94%
    04:00 +3°C° 0 mm 2 mps 730 mmHg 94%
    05:00 +4°C° 0 mm 2 mps 730 mmHg 92%
    06:00 +5°C° 0 mm 2 mps 730 mmHg 91%
    07:00 +5°C° 0 mm 2 mps 730 mmHg 89%
    08:00 +7°C° 0 mm 2 mps 730 mmHg 82%
    09:00 +8°C° 0 mm 3 mps 731 mmHg 75%
    10:00 +10°C° 0 mm 3 mps 731 mmHg 68%
    11:00 +11°C° 0.1 mm 3 mps 731 mmHg 64%
    12:00 +11°C° 0.1 mm 3 mps 731 mmHg 59%
    13:00 +12°C° 0.1 mm 3 mps 730 mmHg 55%
    14:00 +12°C° 0.1 mm 3 mps 730 mmHg 56%
    15:00 +12°C° 0.1 mm 3 mps 730 mmHg 58%
    16:00 +12°C° 0.1 mm 3 mps 730 mmHg 59%
    17:00 +10°C° 0 mm 2 mps 730 mmHg 66%
    18:00 +8°C° 0 mm 2 mps 730 mmHg 73%
    19:00 +8°C° 0 mm 1 mps 730 mmHg 79%
    20:00 +7°C° 0 mm 1 mps 730 mmHg 81%
    21:00 +7°C° 0 mm 1 mps 730 mmHg 82%
    22:00 +6°C° 0 mm 1 mps 730 mmHg 83%
    23:00 +6°C° 0 mm 1 mps 730 mmHg 84%

    Day after tomorrow, 21 September, Saturday

    Time Temperature Precipitation Wind Pressure Humidity
    00:00 +6°C° 0 mm 1 mps 730 mmHg 84%
    01:00 +6°C° 0 mm 1 mps 730 mmHg 85%
    02:00 +5°C° 0 mm 1 mps 730 mmHg 85%
    03:00 +5°C° 0 mm 1 mps 730 mmHg 85%
    04:00 +5°C° 0 mm 1 mps 730 mmHg 85%
    05:00 +6°C° 0 mm 1 mps 730 mmHg 81%
    06:00 +7°C° 0 mm 1 mps 730 mmHg 76%
    07:00 +8°C° 0 mm 1 mps 730 mmHg 72%
    08:00 +10°C° 0 mm 1 mps 730 mmHg 64%
    09:00 +13°C° 0 mm 1 mps 730 mmHg 56%
    10:00 +15°C° 0 mm 1 mps 730 mmHg 49%
    11:00 +16°C° 0 mm 1 mps 730 mmHg 46%
    12:00 +18°C° 0 mm 1 mps 730 mmHg 44%
    13:00 +19°C° 0 mm 1 mps 729 mmHg 42%
    14:00 +18°C° 0 mm 1 mps 729 mmHg 46%
    15:00 +18°C° 0 mm 1 mps 729 mmHg 51%
    16:00 +18°C° 0 mm 1 mps 728 mmHg 55%
    17:00 +14°C° 0 mm 1 mps 728 mmHg 62%
    18:00 +12°C° 0 mm 1 mps 728 mmHg 68%
    19:00 +10°C° 0 mm 1 mps 728 mmHg 74%
    20:00 +10°C° 0 mm 1 mps 728 mmHg 75%
    21:00 +9°C° 0 mm 1 mps 728 mmHg 76%
    22:00 +9°C° 0 mm 1 mps 728 mmHg 77%
    23:00 +9°C° 0 mm 1 mps 728 mmHg 77%

    22 September, Sunday

    Time Temperature Precipitation Wind Pressure Humidity
    00:00 +8°C° 0 mm 1 mps 728 mmHg 78%
    01:00 +8°C° 0 mm 1 mps 727 mmHg 78%
    02:00 +8°C° 0 mm 1 mps 727 mmHg 78%
    03:00 +8°C° 0 mm 1 mps 727 mmHg 79%
    04:00 +8°C° 0 mm 1 mps 727 mmHg 79%
    05:00 +8°C° 0 mm 1 mps 727 mmHg 76%
    06:00 +9°C° 0 mm 1 mps 727 mmHg 73%
    07:00 +10°C° 0 mm 1 mps 726 mmHg 70%
    08:00 +12°C° 0 mm 2 mps 726 mmHg 62%
    09:00 +15°C° 0 mm 2 mps 726 mmHg 54%
    10:00 +17°C° 0 mm 2 mps 726 mmHg 47%
    11:00 +18°C° 0 mm 2 mps 726 mmHg 45%
    12:00 +19°C° 0 mm 2 mps 726 mmHg 43%
    13:00 +20°C° 0 mm 2 mps 725 mmHg 41%
    14:00 +20°C° 0 mm 2 mps 725 mmHg 45%
    15:00 +19°C° 0 mm 2 mps 724 mmHg 49%
    16:00 +19°C° 0 mm 2 mps 724 mmHg 53%
    17:00 +17°C° 0 mm 2 mps 723 mmHg 57%
    18:00 +14°C° 0 mm 2 mps 723 mmHg 61%
    19:00 +12°C° 0 mm 2 mps 723 mmHg 65%
    20:00 +13°C° 0 mm 2 mps 722 mmHg 62%
    21:00 +13°C° 0 mm 2 mps 722 mmHg 59%
    22:00 +14°C° 0 mm 2 mps 722 mmHg 56%
    23:00 +14°C° 0 mm 2 mps 722 mmHg 53%

    23 September, Monday

    Time Temperature Precipitation Wind Pressure Humidity
    00:00 +14°C° 0 mm 2 mps 721 mmHg 50%
    01:00 +14°C° 0 mm 2 mps 721 mmHg 47%
    02:00 +14°C° 0 mm 2 mps 721 mmHg 48%
    03:00 +13°C° 0 mm 3 mps 720 mmHg 48%
    04:00 +13°C° 0 mm 3 mps 720 mmHg 48%
    05:00 +13°C° 0 mm 3 mps 719 mmHg 52%
    06:00 +13°C° 0 mm 3 mps 719 mmHg 56%
    07:00 +13°C° 0 mm 3 mps 719 mmHg 59%
    08:00 +16°C° 0 mm 2 mps 719 mmHg 56%
    09:00 +18°C° 0 mm 2 mps 719 mmHg 53%
    10:00 +19°C° 0 mm 2 mps 719 mmHg 49%
    11:00 +20°C° 0 mm 2 mps 719 mmHg 49%
    12:00 +20°C° 0 mm 2 mps 719 mmHg 50%
    13:00 +21°C° 0 mm 2 mps 718 mmHg 50%
    14:00 +20°C° 0 mm 2 mps 718 mmHg 56%
    15:00 +19°C° 0 mm 2 mps 718 mmHg 62%
    16:00 +18°C° 0 mm 2 mps 718 mmHg 68%
    17:00 +17°C° 0 mm 2 mps 718 mmHg 71%
    18:00 +16°C° 0 mm 2 mps 718 mmHg 73%
    19:00 +16°C° 0 mm 2 mps 718 mmHg 76%
    20:00 +15°C° 0.2 mm 2 mps 718 mmHg 81%
    21:00 +14°C° 0.2 mm 2 mps 718 mmHg 86%
    22:00 +13°C° 0.2 mm 3 mps 719 mmHg 90%
    23:00 +13°C° 1 mm 3 mps 719 mmHg 91%

    24 September, Tuesday

    Time Temperature Precipitation Wind Pressure Humidity
    00:00 +12°C° 1 mm 4 mps 719 mmHg 92%
    01:00 +12°C° 1 mm 4 mps 719 mmHg 93%
    02:00 +12°C° 0.1 mm 3 mps 719 mmHg 93%
    03:00 +11°C° 0.1 mm 3 mps 718 mmHg 93%
    04:00 +10°C° 0.1 mm 2 mps 718 mmHg 93%
    05:00 +11°C° 0 mm 3 mps 718 mmHg 92%
    06:00 +11°C° 0 mm 3 mps 719 mmHg 91%
    07:00 +11°C° 0 mm 4 mps 719 mmHg 89%
    08:00 +11°C° 0.7 mm 4 mps 719 mmHg 89%
    09:00 +11°C° 0.7 mm 4 mps 719 mmHg 88%
    10:00 +10°C° 0.7 mm 5 mps 719 mmHg 87%
    11:00 +11°C° 1.6 mm 4 mps 719 mmHg 89%
    12:00 +11°C° 1.6 mm 4 mps 719 mmHg 91%
    13:00 +11°C° 1.6 mm 3 mps 719 mmHg 92%
    14:00 +12°C° 0.2 mm 3 mps 719 mmHg 91%
    15:00 +13°C° 0.2 mm 2 mps 719 mmHg 89%
    16:00 +14°C° 0.2 mm 2 mps 720 mmHg 87%
    17:00 +13°C° 0.1 mm 2 mps 720 mmHg 88%
    18:00 +12°C° 0.1 mm 2 mps 720 mmHg 90%
    19:00 +12°C° 0.1 mm 2 mps 720 mmHg 91%
    20:00 +10°C° 0 mm 2 mps 720 mmHg 91%
    21:00 +10°C° 0 mm 2 mps 720 mmHg 92%
    22:00 +9°C° 0 mm 2 mps 720 mmHg 93%
    23:00 +10°C° 0 mm 2 mps 720 mmHg 92%
    Show more